Regional Weather Roundup
Issued by NWS

Home | Current Version | Previous Version | Graphics & Text | Print | Product List | Glossary On
Versions: 1 2 3 4 5 6 7 8 9 10 11 12 13 14 15 16 17 18 19 20 21 22 23 24 25 26 27 28 29 30 31 32 33 34 35 36 37 38 39 40 41 42 43 44 45 46 47 48 49 50
000
ASUS43 KOAX 280002
RWRNE

WEATHER ROUNDUP FOR NEBRASKA
NATIONAL WEATHER SERVICE OMAHA NE
700 PM CDT MON MAR 27 2017

NOTES: SATELLITE DATA IS BEING USED TO AUGMENT CLOUD COVER ABOVE
       12000 FEET.
       "FAIR" INDICATES FEW OR NO CLOUDS BELOW 12,000 FEET WITH NO
       SIGNIFICANT WEATHER AND/OR OBSTRUCTIONS TO VISIBILITY.

  * THESE STATIONS DO NOT REPORT WEATHER SUCH AS RAIN...SNOW OR FOG.

NEZ001>004-019>022-054>056-280100-
NEBRASKA PANHANDLE

CITY           SKY/WX    TMP DP  RH WIND       PRES   REMARKS
SCOTTSBLUFF    CLOUDY    62  31  31 SE6       29.78S
6HR MIN TEMP:  62; 6HR MAX TEMP:  67; 6HR PCP: TRACE;

ALLIANCE       CLOUDY    61  30  31 S8        29.79S
6HR MIN TEMP:  61; 6HR MAX TEMP:  66;

CHADRON        SUNNY     64  29  26 NE9       29.79R
6HR MIN TEMP:  58; 6HR MAX TEMP:  66;

KIMBALL        CLOUDY    59  33  36 S7        29.81S
SIDNEY         CLOUDY    61  31  32 SE14      29.81F
6HR MIN TEMP:  59; 6HR MAX TEMP:  65;

$$

NEZ057>060-069>072-079>082-280100-
SOUTHWEST NEBRASKA

CITY           SKY/WX    TMP DP  RH WIND       PRES   REMARKS
NORTH PLATTE   SUNNY     62  42  47 SE10      29.85R
6HR MIN TEMP:  54; 6HR MAX TEMP:  66;

IMPERIAL       SUNNY     63  35  35 SE13      29.83F
6HR MIN TEMP:  58; 6HR MAX TEMP:  65;

LEXINGTON      SUNNY     59  42  53 SE10      29.89S
MCCOOK         SUNNY     61  45  55 SE16      29.86R
6HR MIN TEMP:  58; 6HR MAX TEMP:  66;

OGALLALA       CLOUDY    66  33  28 SE8       29.82S
$$

NEZ005>010-023>029-035>040-094-280100-
NORTH CENTRAL NEBRASKA

CITY           SKY/WX    TMP DP  RH WIND       PRES   REMARKS
VALENTINE      CLOUDY    59  37  44 SE9       29.85S
6HR MIN TEMP:  54; 6HR MAX TEMP:  62;

AINSWORTH      CLOUDY    57  40  53 SE6       29.87S
BROKEN BOW     SUNNY     57  41  55 SE10      29.89S
6HR MIN TEMP:  49; 6HR MAX TEMP:  58;

O`NEILL        CLEAR     58  38  46 SE7       29.91R
ORD            CLEAR     57  40  52 SE7       29.89S
6HR MIN TEMP:  50; 6HR MAX TEMP:  59;

THEDFORD       CLOUDY    60  44  54 SE15G21   29.85S
$$

NEZ041-046>049-061>064-073>077-083>087-280100-
SOUTH CENTRAL NEBRASKA

CITY           SKY/WX    TMP DP  RH WIND       PRES   REMARKS
GRAND ISLAND   CLEAR     54  40  59 E5        29.93R
6HR MIN TEMP:  47; 6HR MAX TEMP:  55;

AURORA         CLEAR     53  42  67 E5        29.93R
HASTINGS       CLEAR     50  42  74 SE7       29.94R
6HR MIN TEMP:  46; 6HR MAX TEMP:  53;

HEBRON         CLOUDY    50  43  75 E3        29.95R
HOLDREGE       SUNNY     57  42  56 SE13      29.90S
KEARNEY *      CLEAR     55  41  58 SE12      29.92S
YORK           CLEAR     52  41  66 CALM      29.94R
$$

NEZ011>018-030>034-042>045-280100-
NORTHEAST NEBRASKA

CITY           SKY/WX    TMP DP  RH WIND       PRES   REMARKS
NORFOLK        CLEAR     56  37  49 SE7       29.92R
6HR MIN TEMP:  49; 6HR MAX TEMP:  59;

ALBION         CLEAR     58  38  47 SE3       29.92R
FREMONT        CLOUDY    50  41  70 E5        29.97R
TEKAMAH        CLOUDY    52  41  66 S5        29.96R
6HR MIN TEMP:  49; 6HR MAX TEMP:  53;

WAYNE          CLEAR     56  40  55 SE6       29.93S
$$

NEZ050>053-065>068-078-088>093-280100-
SOUTHEAST NEBRASKA

CITY           SKY/WX    TMP DP  RH WIND       PRES   REMARKS
LINCOLN        CLEAR     52  41  66 E12       29.96S
6HR MIN TEMP:  51; 6HR MAX TEMP:  57;

OMAHA EPPLEY   CLOUDY    51  40  65 CALM      29.96S
6HR MIN TEMP:  50; 6HR MAX TEMP:  52;

BEATRICE       CLOUDY    53  43  68 NE6       29.94R
FALLS CITY     CLOUDY    51  43  74 N7        29.94S
6HR MIN TEMP:  50; 6HR MAX TEMP:  54;

NEBRASKA CITY  CLOUDY    47  38  71 N7        29.96S
PLATTSMOUTH    CLOUDY    49  37  64 CALM      29.96S
$$

NEZ044-045-051>053-067-280100-
OMAHA AREA

CITY           SKY/WX    TMP DP  RH WIND       PRES   REMARKS
OMAHA EPPLEY   CLOUDY    51  40  65 CALM      29.96S
6HR MIN TEMP:  50; 6HR MAX TEMP:  52;

FREMONT        CLOUDY    50  41  70 E5        29.97R
MILLARD        CLOUDY    51  42  69 CALM      29.97R
OFFUTT AFB     CLOUDY    50  40  67 CALM      29.96S
PLATTSMOUTH    CLOUDY    49  37  64 CALM      29.96S
WAHOO          CLOUDY    51  41  67 E5        29.96S
$$




USA.gov is the U.S. government's official web portal to all federal, state and local government web resources and services.